Showing default

GONETS M 18, 46487

Orbit data source: Space-Track

GONETS M 18, 46487 is a payload satellite owned by Gonets (CIS) in LEO that was launched on Mon, 28 Sep 2020 UTC via a SOYUZ-2-1B launch vehicle from the Plesetsk Missile And Space Complex (PKMTR). Payloads include a variety of satellites, spacecraft, and rockets equipped with specific instruments for various scientific and technological missions. These include communications satellites like Starlink; space stations such as the ISS; scientific satellites like the Hubble; Earth observation satellites from companies like Planet Labs, Umbra, and HawkEye 360; GPS; miniature CubeSats for education and research; and military/defense satellites.

Loading next visibility...
GONETS M 18 details
Identifier
46487, 2020-068B
Orbit
LEO
Last TLE update6 hours ago
Origin
Flag of CISGonets (CIS)
ManufacturerResehetnev ISS
MissionOperational Commercial Communications
Bus & MotorSTRELA-3M, Unknown motor
Mass225 kg wet, 225 kg dry
Launch date (UTC)
2020-09-28 (4 years ago)
Launch vehicle
SOYUZ-2-1B
Launch site
Plesetsk Missile And Space Complex (PKMTR)
Object type
Payload
Rocket body
Debris
Shape & HBRCyl + 1 Ant, 7 m
Radar Cross Section1.798 m², Large (>1 m²)

Expand to show TLE details & history

TLE from 6 hours ago
0 GONETS M 18
1 46487U 20068B   24361.28967967  .00000030  00000-0  14341-3 0  9994
2 46487  82.4941 321.4339 0020844 122.5863 237.7232 12.42873310192323
Epoch: 2024-12-26T06:57Z
Definitive object data (Epoch: 2024-12-26T06:57:08.323Z)
Latitude-0.0001°
Longitude121.878°
Altitude1,505.935 km
Speed7.108 km/s
True Right ascension21h 25m 44s
True Declination0° 00' 00"
Sunlit
Object was in daylight at TLE epoch
Visualization TLE readout
Latitude4.48974°
Longitude122.31701°
Altitude1,504.215 km
Speed7.109 km/s
Apparent Right ascension22h 28m 20s
Apparent Declination-16° 02' 16"
Sunlit
Object is in daylight
Visualization observer readout
Local Sidereal Time12:07:54
Azimuth49.337° ENE
Elevation-57.771°
Doppler factor1
Orbital elements
Apogee altitude1,508.202 km
Perigee altitude1,475.394 km
Semi-major axis7,869.935 km
Eccentricity0.0020844
Inclination82.4941°
RAAN321.4339°
Arg. of periapsis122.5863°
True anomaly237.52153°
Mean anomaly237.7232°
Eccentric anomaly237.62234°
Mean motion3.10875 °/min
BSTAR0.00014341
Orbital period115.8 mins
Loading maneuver chart data...
Loading historical data...
Loading historical data...
Loading historical data...
Loading historical data...
Loading historical data...
Loading historical data...
Loading historical data...

GONETS M 18 Visibility forecast

Observer location: undefined°, undefined

Span
Click to sort rows by Start time (UTC) header in descending order
Start Az.
Max El. time (UTC)
Max El. Az.
Max El.
End time (UTC)
End Az.
11 mins2024-12-26 20:36:20.595Z120.071° SE2024-12-26 20:41:20.595Z83.066° E19.29°2024-12-26 20:47:20.595Z37.647° NE
15 mins2024-12-26 22:30:20.595Z192.378° SSW2024-12-26 22:37:20.595Z263.39° W44.413°2024-12-26 22:45:20.595Z4.804° NNE
8 mins2024-12-27 00:32:20.595Z273.419° WNW2024-12-27 00:36:20.595Z303.185° NW14.796°2024-12-27 00:40:20.595Z331.631° NNW
15 mins2024-12-27 08:41:20.595Z4.973° NNE2024-12-27 08:48:20.595Z74.5° E37.8°2024-12-27 08:56:20.595Z149.749° SSE
12 mins2024-12-27 10:39:20.595Z326.787° NNW2024-12-27 10:45:20.595Z269.161° W28.827°2024-12-27 10:51:20.595Z219.278° SW
|